Regional Weather Roundup
Issued by NWS

Home | Current Version | Previous Version | Graphics & Text | Print | Product List | Glossary On
Versions: 1 2 3 4 5 6 7 8 9 10 11 12 13 14 15 16 17 18 19 20 21 22 23 24 25 26 27 28 29 30 31 32 33 34 35 36 37 38 39 40 41 42 43 44 45 46 47 48 49 50
000
ASUS43 KBIS 210502
RWRND

NORTH DAKOTA REGIONAL WEATHER ROUNDUP
NATIONAL WEATHER SERVICE BISMARCK ND
1100 PM CST MON NOV 20 2017

NOTE: "FAIR" INDICATES FEW OR NO CLOUDS BELOW 12,000 FEET WITH NO
SIGNIFICANT WEATHER AND/OR OBSTRUCTIONS TO VISIBILITY.


NDZ001>003-009>011-017-210600-
NORTHWEST NORTH DAKOTA

CITY           SKY/WX    TMP DP  RH WIND       PRES   REMARKS
WILLISTON      CLOUDY     9   0  67 NW13G24   30.00R WCI  -7
MINOT          CLOUDY    14   4  64 W31G40    29.83R WCI  -7
MINOT AFB      CLOUDY    12   4  68 NW30G38   29.83R WCI  -9
$$

NDZ018>021-031>035-040>046-210600-
SOUTHWEST NORTH DAKOTA

CITY           SKY/WX    TMP DP  RH WIND       PRES   REMARKS
BISMARCK       CLOUDY    28   9  44 NW25G36   29.84R WCI  13
DICKINSON      CLOUDY    24  12  60 N16G26    29.85R WCI  11
GARRISON         N/A     11   4  73 NW29G38   29.86R WCI -11
HETTINGER ARPT CLOUDY    32  16  51 NW18      29.85R
$$

NDZ004>008-012>016-024-026-027-054-210600-
NORTHEAST NORTH DAKOTA

CITY           SKY/WX    TMP DP  RH WIND       PRES   REMARKS
GRAND FORKS    PTCLDY    23  14  68 NW26G39   29.62R WCI   6
GRND FRKS AFB  MIX PCPN  23  14  68 NW29G41   29.62R WCI   6
DEVILS LAKE    LGT SNOW  20  13  74 NW29G35   29.67R WCI   1
$$

NDZ022-023-025-028>030-036>039-047>053-210600-
SOUTHEAST NORTH DAKOTA

CITY           SKY/WX    TMP DP  RH WIND       PRES   REMARKS
FARGO          MOCLDY    28  16  60 NW22G38   29.65R WCI  14
JAMESTOWN      CLEAR     23  12  62 NW31G46   29.69R WCI   5
$$





USA.gov is the U.S. government's official web portal to all federal, state and local government web resources and services.